Weerstation Grootegast  Weerstation Grootegast


15 daagse weersverwachting Coimbra (PT)

  • Overzicht
  • Per uur
  • 15 dagen
  • Extra
  • Vergelijk
  • Kaarten
  • Dagkaart
  • Meer »
  • Info
  • Statistieken
  • Directe link
    Temp 6h Neerslag Wind  
 06:20     21:00    Daglengte: 14:40 Morgen
01:00
16°
 
1
07:00
16°
 
1
13:00
26°
 
2
19:00
22°
 
4
 06:21     21:00    Daglengte: 14:39 Woensdag 18 Jul
01:00
17°
 
1
07:00
17°
 
2
13:00
24°
 
3
19:00
21°
 
5
 06:21     20:59    Daglengte: 14:38 Donderdag 19 Jul
01:00
17°
 
1
07:00
17°
 
1
13:00
23°
 
4
19:00
21°
4.2 mm
5
Locatie info
Region: Coimbra
Latitude: 40.2109°N
Longitude: -8.4162°E
98 masl
Postcode: 3000-250
Temp/Neerslag /Baro Onweer/Dauwpunt
    Temp Baro 1h Neerslag Dauwpunt Wind UV Bewolking  
 06:19     21:01    Daglengte: 14:42 Vandaag
22:00
18°
1020.6 hPa   15.2°
2
Windvlaag: -0.9 m/s
2%
23:00
17°
1020.6 hPa   15.7°
2
Windvlaag: -0.6 m/s
9%
 06:20     21:00    Daglengte: 14:40 Morgen
00:00
16°
1020.3 hPa   15.8°
2
Windvlaag: -0.5 m/s
15%
01:00
16°
1019.9 hPa   15.7°
1
Windvlaag: -0.1 m/s
29%
02:00
16°
1019.5 hPa   15.9°
1
Windvlaag: 0.1 m/s
74%
03:00
16°
1018.9 hPa   16.0°
1
Windvlaag: -0.2 m/s
82%
04:00
16°
1018.5 hPa   16.1°
1
Windvlaag: -0.4 m/s
86%
05:00
16°
1018.3 hPa   15.9°
1
Windvlaag: -0.6 m/s
88%
06:00
16°
1018.2 hPa   15.8°
1
Windvlaag: -0.5 m/s
90%
07:00
16°
1018.2 hPa   15.7°
1
Windvlaag: -0.5 m/s
90%
08:00
16°
1018.1 hPa
11%
15.5°
1
Windvlaag: -0.5 m/s
90%
09:00
18°
1018.1 hPa
11%
15.4°
1
Windvlaag: -0.4 m/s
86%
10:00
20°
1017.8 hPa
11%
15.7°
1
Windvlaag: -0.6 m/s
62%
11:00
22°
1017.4 hPa
11%
16.2°
2
Windvlaag: -0.5 m/s
1%
12:00
24°
1016.8 hPa
11%
16.5°
2
Windvlaag: -0.9 m/s
0%
13:00
26°
1016.3 hPa
11%
16.8°
2
Windvlaag: -1 m/s
0%
14:00
27°
1015.6 hPa
11%
17.1°
3
Windvlaag: -0.5 m/s
0%
15:00
27°
1015.2 hPa
11%
17.2°
4
Windvlaag: -0.4 m/s
1%
16:00
26°
1014.9 hPa
11%
16.8°
4
Windvlaag: -0.6 m/s
0%
17:00
25°
1014.6 hPa
11%
16.4°
5
Windvlaag: -0.6 m/s
0%
18:00
24°
1014.5 hPa
11%
16.1°
4
Windvlaag: -0.7 m/s
0%
19:00
22°
1014.4 hPa
11%
15.5°
4
Windvlaag: -0.3 m/s
0%
20:00
21°
1014.6 hPa
11%
15.1°
3
Windvlaag: -0.1 m/s
0%
21:00
19°
1014.7 hPa
11%
15.0°
3
Windvlaag: 0.3 m/s
0%
22:00
18°
1015.3 hPa
11%
15.4°
2
Windvlaag: 0.7 m/s
3%
23:00
17°
1015.6 hPa
11%
15.6°
2
Windvlaag: 0.5 m/s
20%
 06:21     21:00    Daglengte: 14:39 Woensdag 18 Jul
00:00
17°
1015.5 hPa
11%
15.8°
1
Windvlaag: 0.7 m/s
44%
01:00
17°
1015.1 hPa
12%
15.9°
1
Windvlaag: 0.7 m/s
78%
02:00
17°
1014.7 hPa
13%
16.1°
1
Windvlaag: 1.2 m/s
90%
03:00
17°
1014.4 hPa
13%
16.0°
2
Windvlaag: 1.3 m/s
90%
04:00
17°
1014.3 hPa
14%
16.2°
2
Windvlaag: 1.3 m/s
91%
05:00
17°
1014.3 hPa
14%
16.3°
2
Windvlaag: 1.1 m/s
89%
06:00
17°
1014.6 hPa
14%
16.3°
2
Windvlaag: 0.9 m/s
89%
07:00
17°
1015.0 hPa
14%
16.1°
2
Windvlaag: 0.9 m/s
84%
08:00
18°
1015.3 hPa
14%
16.1°
2
Windvlaag: 1.2 m/s
80%
09:00
18°
1015.6 hPa
14%
16.1°
1
Windvlaag: 1.1 m/s
73%
10:00
20°
1015.9 hPa
14%
16.3°
2
Windvlaag: 1.1 m/s
72%
11:00
21°
1016.1 hPa
14%
16.0°
2
Windvlaag: 1 m/s
70%
12:00
22°
1016.1 hPa
14%
15.4°
2
Windvlaag: 0.7 m/s
53%
13:00
24°
1015.9 hPa
14%
15.1°
3
Windvlaag: 0.6 m/s
42%
14:00
24°
1015.6 hPa
14%
15.0°
3
Windvlaag: 0.2 m/s
54%
15:00
24°
1015.6 hPa
14%
14.9°
4
Windvlaag: -0 m/s
48%
16:00
24°
1015.8 hPa
21%
15.0°
4
Windvlaag: -0.1 m/s
50%
17:00
23°
1015.7 hPa
21%
14.7°
4
Windvlaag: -0.3 m/s
46%
18:00
22°
1015.7 hPa
21%
14.5°
5
Windvlaag: -0.8 m/s
33%
19:00
21°
1015.9 hPa
22%
15.3°
5
Windvlaag: -1 m/s
59%
20:00
20°
1016.4 hPa
24%
15.2°
4
Windvlaag: -1 m/s
60%
21:00
19°
1016.8 hPa
27%
15.1°
4
Windvlaag: -0.6 m/s
65%
22:00
19°
1017.2 hPa
77%
15.3°
4
Windvlaag: -0.9 m/s
64%
23:00
18°
1017.5 hPa
35%
15.8°
3
Windvlaag: -0.7 m/s
61%
 06:21     20:59    Daglengte: 14:38 Donderdag 19 Jul
00:00
18°
1017.5 hPa
85%
16.1°
2
Windvlaag: -0.3 m/s
50%
01:00
17°
1017.3 hPa
78%
16.7°
1
Windvlaag: -0.2 m/s
57%
02:00
17°
1016.9 hPa
85%
16.8°
1
Windvlaag: -0.2 m/s
81%
03:00
17°
1016.5 hPa
92%
16.5°
2
Windvlaag: -0 m/s
69%
04:00
17°
1016.3 hPa
94%
16.5°
2
Windvlaag: 0 m/s
53%
05:00
17°
1016.3 hPa
95%
16.5°
1
Windvlaag: 0 m/s
60%
06:00
17°
1016.4 hPa
97%
16.5°
1
Windvlaag: 0 m/s
90%
07:00
17°
1016.7 hPa
97%
16.3°
1
Windvlaag: 0.2 m/s
72%
08:00
18°
1017.0 hPa
97%
16.0°
2
Windvlaag: 0.6 m/s
72%
09:00
19°
1017.2 hPa
28%
15.8°
2
Windvlaag: 0.7 m/s
72%
10:00
20°
1017.3 hPa
22%
15.5°
3
Windvlaag: 0.3 m/s
64%
11:00
22°
1017.2 hPa
21%
15.1°
3
Windvlaag: 0.1 m/s
58%
12:00
22°
1017.3 hPa
21%
16.0°
4
Windvlaag: 0.2 m/s
53%
13:00
23°
1017.3 hPa
21%
16.6°
4
Windvlaag: 0.4 m/s
58%
14:00
23°
1017.3 hPa 1.4 mm
21%
16.4°
5
Windvlaag: 1 m/s
63%
15:00
23°
1017.2 hPa
21%
16.5°
5
Windvlaag: 1.2 m/s
72%
16:00
23°
1017.1 hPa 1.4 mm
21%
16.3°
5
Windvlaag: 1.1 m/s
66%
17:00
23°
1016.9 hPa 1.4 mm
21%
16.3°
5
Windvlaag: 1.1 m/s
46%
18:00
22°
1016.9 hPa
21%
15.8°
5
Windvlaag: 1.3 m/s
34%
19:00
21°
1016.9 hPa
68%
15.7°
5
Windvlaag: 1.3 m/s
52%
20:00
21°
1017.2 hPa 3.9 mm
100%
16.0°
5
Windvlaag: 9.7 m/s
54%
21:00
20°
1017.4 hPa 3.9 mm
100%
16.0°
4
Windvlaag: 10.1 m/s
59%
Temp/Neerslag /Baro Onweer/Dauwpunt
    Temp Baro Neerslag Dauwpunt Wind Bewolking  
 06:19     21:01    Daglengte: 14:42 Vandaag
22:00
18°
1020.6 hPa   15.2°
2
2%
 06:20     21:00    Daglengte: 14:40 Morgen
01:00
16°
1019.9 hPa   15.7°
1
29%
04:00
16°
1018.5 hPa   16.1°
1
86%
07:00
16°
1018.2 hPa   15.7°
1
90%
10:00
20°
1017.8 hPa   15.7°
1
62%
13:00
26°
1016.3 hPa   16.8°
2
0%
16:00
26°
1014.9 hPa   16.8°
4
0%
19:00
22°
1014.4 hPa   15.5°
4
0%
22:00
18°
1015.3 hPa   15.4°
2
3%
 06:21     21:00    Daglengte: 14:39 Woensdag 18 Jul
01:00
17°
1015.1 hPa   15.9°
1
78%
04:00
17°
1014.3 hPa   16.2°
2
91%
07:00
17°
1015.0 hPa   16.1°
2
84%
10:00
20°
1015.9 hPa   16.3°
2
72%
13:00
24°
1015.9 hPa   15.1°
3
42%
16:00
24°
1015.8 hPa   15.0°
4
50%
19:00
21°
1015.9 hPa   15.3°
5
59%
22:00
19°
1017.2 hPa   15.3°
4
64%
 06:21     20:59    Daglengte: 14:38 Donderdag 19 Jul
01:00
17°
1017.3 hPa   16.7°
1
57%
04:00
17°
1016.3 hPa   16.5°
2
53%
07:00
17°
1016.7 hPa   16.3°
1
72%
10:00
20°
1017.3 hPa   15.5°
3
64%
13:00
23°
1017.3 hPa   16.6°
4
58%
16:00
23°
1017.1 hPa 2.8 mm 16.3°
5
66%
19:00
21°
1016.9 hPa 1.4 mm 15.7°
5
52%
22:00
19°
1017.6 hPa 11.7 mm 16.0°
3
65%
 06:22     20:58    Daglengte: 14:36 Vrijdag 20 Jul
01:00
17°
1018.1 hPa 11.7 mm 15.8°
2
85%
04:00
16°
1017.6 hPa   15.6°
1
90%
07:00
16°
1017.4 hPa   15.6°
1
92%
10:00
21°
1017.6 hPa   16.2°
2
53%
13:00
25°
1017.7 hPa   15.5°
3
15%
16:00
24°
1017.0 hPa   15.1°
4
8%
19:00
23°
1016.4 hPa   14.7°
5
1%
22:00
19°
1016.9 hPa   14.9°
3
0%
 06:23     20:58    Daglengte: 14:35 Zaterdag 21 Jul
01:00
16°
1017.3 hPa   14.5°
1
0%
04:00
15°
1016.8 hPa   14.3°
1
40%
07:00
15°
1016.5 hPa   14.2°
0
79%
10:00
21°
1016.5 hPa   16.3°
2
60%
13:00
28°
1016.4 hPa   16.3°
3
40%
16:00
25°
1015.7 hPa   16.4°
5
64%
19:00
23°
1015.0 hPa   16.0°
6
89%
22:00
19°
1015.5 hPa   15.7°
3
88%
 06:24     20:57    Daglengte: 14:33 Zondag 22 Jul
01:00
16°
1016.0 hPa   15.0°
1
88%
04:00
16°
1015.4 hPa   14.9°
1
90%
07:00
16°
1014.8 hPa   15.1°
0
92%
10:00
22°
1014.5 hPa   17.0°
1
46%
13:00
27°
1014.2 hPa   17.5°
2
0%
16:00
26°
1013.4 hPa   16.6°
3
0%
19:00
25°
1012.8 hPa   15.5°
4
0%
22:00
21°
1013.7 hPa   15.9°
3
0%
 06:25     20:56    Daglengte: 14:31 Maandag 23 Jul
01:00
17°
1014.4 hPa   15.3°
2
0%
04:00
16°
1014.3 hPa   15.4°
2
46%
07:00
16°
1014.3 hPa   15.5°
1
92%
10:00
21°
1014.5 hPa   17.0°
3
51%
13:00
26°
1014.6 hPa   17.3°
4
11%
16:00
24°
1014.7 hPa   16.9°
4
10%
19:00
22°
1014.9 hPa   16.4°
4
10%
 06:26     20:55    Daglengte: 14:29 Dinsdag 24 Jul
01:00
19°
1015.9 hPa   15.6°
2
84%
07:00
17°
1015.1 hPa 0.2 mm 16.3°
0
48%
13:00
23°
1016.1 hPa   14.4°
3
72%
19:00
22°
1015.0 hPa   14.5°
4
66%
 06:27     20:54    Daglengte: 14:27 Woensdag 25 Jul
01:00
17°
1016.0 hPa   16.1°
2
68%
07:00
17°
1015.6 hPa   16.2°
1
76%
13:00
25°
1016.4 hPa   13.7°
3
83%
19:00
23°
1016.1 hPa   14.0°
5
0%
 06:27     20:53    Daglengte: 14:26 Donderdag 26 Jul
01:00
16°
1017.7 hPa   14.8°
2
1%
07:00
15°
1018.0 hPa   14.2°
1
92%
13:00
25°
1017.6 hPa 0.1 mm 14.1°
4
15%
19:00
23°
1015.3 hPa   14.9°
3
8%
 06:28     20:52    Daglengte: 14:24 Vrijdag 27 Jul
01:00
15°
1016.8 hPa   14.4°
2
7%
07:00
15°
1015.7 hPa 0.1 mm 14.0°
2
19%
13:00
24°
1015.7 hPa 0.2 mm 14.5°
2
18%
19:00
23°
1014.7 hPa   15.2°
3
12%
 06:29     20:52    Daglengte: 14:23 Zaterdag 28 Jul
01:00
15°
1016.3 hPa   14.5°
2
5%
07:00
15°
1015.9 hPa 0.1 mm 13.7°
1
23%
13:00
24°
1016.6 hPa   14.6°
2
19%
19:00
23°
1016.0 hPa   14.5°
3
11%
 06:30     20:51    Daglengte: 14:21 Zondag 29 Jul
01:00
16°
1017.7 hPa   13.8°
2
3%
07:00
15°
1017.4 hPa   13.4°
2
14%
13:00
26°
1017.4 hPa   14.0°
2
13%
19:00
25°
1016.1 hPa   15.3°
3
7%
 06:31     20:50    Daglengte: 14:19 Maandag 30 Jul
01:00
17°
1017.3 hPa   14.9°
2
4%
07:00
16°
1016.6 hPa   14.4°
2
12%
13:00
27°
1016.5 hPa   15.3°
2
10%
19:00
25°
1015.2 hPa   16.1°
3
6%
 06:32     20:48    Daglengte: 14:16 Dinsdag 31 Jul
01:00
17°
1016.4 hPa   15.5°
2
7%
07:00
16°
1015.8 hPa   14.9°
2
22%
13:00
27°
1015.5 hPa   15.5°
2
13%
19:00
25°
1014.0 hPa   16.4°
3
6%
  CAPE Lifted Index Hail Supercell Tornado SRH 3km CL BTM PRES CL TOP PRES Swiss DWD icon SMHI TS
 06:19     21:01    Daglengte: 14:42 Vandaag
22:00 0 J/kg 6.7 K 0 % 0 % 0 % 0 m²/s² 0 0 12.82 2
23:00 0 J/kg 6.5 K 0 % 0 % 0 % 0 m²/s² 0 0 12.8 2
 06:20     21:00    Daglengte: 14:40 Morgen
00:00 0 J/kg 6.3 K 0 % 0 % 0 % 0 m²/s² 0 0 12.78 2
01:00 0 J/kg 6.2 K 0 % 0 % 0 % 0 m²/s² 0 0 12.68 2
02:00 1 J/kg 6.2 K 0 % 0 % 0 % 0 m²/s² 0 0 12.86 2
03:00 1 J/kg 6.0 K 0 % 0 % 0 % 0 m²/s² 0 0 12.87 3
04:00 1 J/kg 5.9 K 0 % 0 % 0 % 0 m²/s² 0 0 12.77 3
05:00 2 J/kg 5.3 K 0 % 0 % 0 % 0 m²/s² 0 0 12.38 45
06:00 2 J/kg 4.8 K 0 % 0 % 0 % 0 m²/s² 0 0 11.88 45
07:00 3 J/kg 4.6 K 0 % 0 % 0 % 0 m²/s² 0 0 11.92 45
08:00 3 J/kg 4.4 K 0 % 0 % 0 % 0 m²/s² 0 0 11.72 3
09:00 2 J/kg 3.9 K 0 % 0 % 0 % 0 m²/s² 0 0 11.22 2
10:00 2 J/kg 3.6 K 0 % 0 % 0 % 0 m²/s² 0 0 11.13 1
11:00 0 J/kg 3.4 K 0 % 0 % 0 % 0 m²/s² 0 0 10.96 1
12:00 0 J/kg 1.7 K 0 % 0 % 0 % 0 m²/s² 0 0 9.53 1
13:00 7 J/kg 0.6 K 0 % 0 % 0 % 0 m²/s² 0 0 8.16 1
14:00 5 J/kg 0.6 K 0 % 0 % 0 % 0 m²/s² 0 0 8.4 1
15:00 1 J/kg 0.8 K 0 % 0 % 0 % 0 m²/s² 0 0 8.36 1
16:00 0 J/kg 1.1 K 0 % 0 % 0 % 0 m²/s² 0 0 8.63 0
17:00 0 J/kg 1.5 K 0 % 0 % 0 % 0 m²/s² 0 0 9.03 0
18:00 0 J/kg 1.9 K 0 % 0 % 0 % 0 m²/s² 0 0 9.43 0
19:00 0 J/kg 2.2 K 0 % 0 % 0 % 0 m²/s² 0 0 10 0
20:00 0 J/kg 2.5 K 0 % 0 % 0 % 0 m²/s² 0 0 10.3 0
21:00 0 J/kg 2.9 K 0 % 0 % 0 % 0 m²/s² 0 0 10.94 0
22:00 0 J/kg 2.7 K 0 % 0 % 0 % 0 m²/s² 0 0 11.04 1
23:00 0 J/kg 1.8 K 0 % 0 % 0 % 0 m²/s² 0 0 10.47 2
 06:21     21:00    Daglengte: 14:39 Woensdag 18 Jul
00:00 1 J/kg 0.5 K 0 % 0 % 0 % 0 m²/s² 0 0 9.14 3
01:00 1 J/kg -1.0 K 0 % 0 % 0 % 0 m²/s² 0 0 7.64 3
02:00 2 J/kg -2.5 K 0 % 0 % 0 % 0 m²/s² 0 0 4.97 3
03:00 5 J/kg -2.3 K 0 % 0 % 0 % 0 m²/s² 0 0 3.76 3
04:00 6 J/kg -1.9 K 0 % 0 % 0 % 0 m²/s² 0 0 3.38 3
05:00 7 J/kg -0.8 K 0 % 0 % 0 % 0 m²/s² 0 0 3.85 3
06:00 10 J/kg 0.9 K 0 % 0 % 0 % 0 m²/s² 0 0 5.31 3
07:00 10 J/kg 2.3 K 0 % 0 % 0 % 0 m²/s² 0 0 6.62 3
08:00 6 J/kg 3.4 K 0 % 0 % 0 % 0 m²/s² 0 0 7.72 3
09:00 10 J/kg 4.0 K 0 % 0 % 0 % 0 m²/s² 0 0 8.44 3
10:00 14 J/kg 4.4 K 0 % 0 % 0 % 0 m²/s² 0 0 9.2 3
11:00 17 J/kg 4.1 K 0 % 0 % 0 % 0 m²/s² 0 0 9.29 3
12:00 14 J/kg 3.9 K 0 % 0 % 0 % 0 m²/s² 0 0 9.69 3
13:00 7 J/kg 3.5 K 0 % 0 % 0 % 0 m²/s² 0 0 9.95 2
14:00 5 J/kg 3.6 K 0 % 0 % 0 % 0 m²/s² 0 0 11.13 3
15:00 3 J/kg 3.9 K 0 % 0 % 0 % 0 m²/s² 0 0 12.27 3
16:00 5 J/kg 3.7 K 0 % 0 % 0 % 0 m²/s² 0 0 12.76 2
17:00 6 J/kg 4.3 K 0 % 0 % 0 % 0 m²/s² 0 0 13.75 2
18:00 15 J/kg 4.5 K 0 % 0 % 0 % 0 m²/s² 0 0 14.37 2
19:00 21 J/kg 4.6 K 0 % 0 % 0 % 0 m²/s² 0 0 14.92 2
20:00 23 J/kg 5.2 K 0 % 0 % 0 % 0 m²/s² 0 0 15.52 2
21:00 15 J/kg 5.1 K 0 % 0 % 0 % 0 m²/s² 0 0 15.42 2
22:00 19 J/kg 4.9 K 0 % 0 % 0 % 0 m²/s² 0 0 15.19 3
23:00 20 J/kg 4.6 K 0 % 0 % 0 % 0 m²/s² 0 0 14.41 3
 06:21     20:59    Daglengte: 14:38 Donderdag 19 Jul
00:00 26 J/kg 4.3 K 0 % 0 % 0 % 0 m²/s² 0 0 13.3 3
01:00 23 J/kg 3.9 K 0 % 0 % 0 % 0 m²/s² 0 0 11.94 2
02:00 31 J/kg 3.3 K 0 % 0 % 0 % 0 m²/s² 0 0 10.32 3
03:00 34 J/kg 2.8 K 0 % 0 % 0 % 0 m²/s² 0 0 8.23 3
04:00 36 J/kg 2.4 K 0 % 0 % 0 % 0 m²/s² 0 0 5.82 3
05:00 26 J/kg 2.1 K 0 % 0 % 0 % 0 m²/s² 0 0 3.84 3
06:00 35 J/kg 1.8 K 0 % 0 % 0 % 0 m²/s² 0 0 2.88 80
07:00 39 J/kg 2.2 K 0 % 0 % 0 % 0 m²/s² 0 0 3.55 3
08:00 26 J/kg 2.2 K 0 % 0 % 0 % 0 m²/s² 0 0 4.06 2
09:00 25 J/kg 2.2 K 0 % 0 % 0 % 0 m²/s² 0 0 4.39 3
10:00 51 J/kg 1.6 K 0 % 0 % 0 % 0 m²/s² 0 0 4.15 2
11:00 51 J/kg 1.5 K 0 % 0 % 0 % 0 m²/s² 0 0 4.14 2
12:00 50 J/kg 1.4 K 0 % 0 % 0 % 0 m²/s² 0 0 4.28 2
13:00 49 J/kg 1.0 K 0 % 0 % 0 % 0 m²/s² 0 0 4.03 2
14:00 41 J/kg 1.1 K 0 % 0 % 0 % 0 m²/s² 0 0 4.22 3
15:00 32 J/kg 1.2 K 0 % 0 % 0 % 0 m²/s² 0 0 4.41 3
16:00 14 J/kg 1.3 K 0 % 0 % 0 % 0 m²/s² 0 0 4.42 3
17:00 3 J/kg 1.3 K 0 % 0 % 0 % 0 m²/s² 0 0 4.51 2
18:00 1 J/kg 1.6 K 0 % 0 % 0 % 0 m²/s² 0 0 4.81 2
19:00 2 J/kg 1.7 K 0 % 0 % 0 % 0 m²/s² 0 0 4.82 3
20:00 4 J/kg 2.1 K 0 % 0 % 0 % 0 m²/s² 0 0 5.31
21:00 1 J/kg 2.8 K 0 % 0 % 0 % 0 m²/s² 0 0 6.1
Temp Baro Wind Neerslag
  EWN Forecast EWN WRFDA DWD ICON FMI HIRLAM MET Norway GFS
 06:19     21:01    Daglengte: 14:42 Vandaag
22:00 17.8° 1020.6 hPa 2.3 m/s 0.0 mm 17.8° 1020.2 hPa 3.6 m/s 0.0 mm 18.4° 1021.0 hPa 2.3 m/s -2.0 mm 16.9° 1020.4 hPa 1.1 m/s 0.0 mm 17.8° 1020.7 hPa 2.6 m/s 0.0 mm 16.9° 1019.9 hPa 1.5 m/s
 06:20     21:00    Daglengte: 14:40 Morgen
01:00 16.3° 1019.9 hPa 1.4 m/s 0.0 mm 16.3° 1019.8 hPa 1.8 m/s 0.0 mm 16.9° 1020.1 hPa 1.2 m/s 0.0 mm 16.2° 1020.0 hPa 1.3 m/s 0.0 mm 15.7° 1019.9 hPa 1.8 m/s 0.0 mm 15.5° 1019.8 hPa 0.9 m/s
04:00 16.3° 1018.5 hPa 1.1 m/s 0.0 mm 15.8° 1018.0 hPa 1.8 m/s 0.0 mm 16.4° 1018.8 hPa 1.1 m/s 0.0 mm 16.6° 1019.0 hPa 1.4 m/s 0.0 mm 15.8° 1018.4 hPa 1.1 m/s 0.0 mm 15.0° 1018.4 hPa 0.7 m/s
07:00 16.1° 1018.2 hPa 0.9 m/s 0.0 mm 15.8° 1017.4 hPa 2.0 m/s 0.2 mm 16.2° 1018.4 hPa 0.9 m/s 0.0 mm 16.6° 1018.9 hPa 0.8 m/s 0.0 mm 15.5° 1018.1 hPa 0.6 m/s 0.0 mm 15.3° 1017.8 hPa 0.5 m/s
10:00 20.2° 1017.8 hPa 1.3 m/s 0.0 mm 17.5° 1017.3 hPa 1.0 m/s 0.5 mm 20.3° 1018.3 hPa 1.5 m/s 0.0 mm 21.8° 1018.0 hPa 1.2 m/s 0.0 mm 20.5° 1017.7 hPa 1.6 m/s 0.0 mm 22.8° 1017.6 hPa 1.9 m/s
13:00 25.6° 1016.3 hPa 2.4 m/s 0.0 mm 25.2° 1015.6 hPa 4.4 m/s 0.5 mm 24.9° 1017.0 hPa 2.3 m/s 0.0 mm 27.7° 1016.4 hPa 2.7 m/s 0.0 mm 25.7° 1016.3 hPa 2.2 m/s 0.0 mm 27.5° 1016.3 hPa 3.3 m/s
16:00 26.2° 1014.9 hPa 4.4 m/s 0.0 mm 25.2° 1014.5 hPa 6.7 m/s 0.5 mm 25.7° 1015.5 hPa 4.0 m/s 0.0 mm 26.0° 1016.0 hPa 4.2 m/s 0.0 mm 26.3° 1014.7 hPa 4.6 m/s 0.0 mm 27.1° 1014.8 hPa 5.0 m/s
19:00 22.5° 1014.4 hPa 4.0 m/s 0.0 mm 22.2° 1014.0 hPa 6.0 m/s 0.5 mm 22.3° 1014.9 hPa 3.8 m/s 0.0 mm 21.8° 1016.0 hPa 3.5 m/s 0.0 mm 22.6° 1014.2 hPa 4.5 m/s 0.0 mm 22.9° 1013.7 hPa 3.9 m/s
22:00 17.9° 1015.3 hPa 2.3 m/s 0.0 mm 17.9° 1014.8 hPa 3.6 m/s 0.5 mm 18.2° 1015.2 hPa 1.7 m/s 0.0 mm 15.6° 1016.8 hPa 1.2 m/s 0.0 mm 18.0° 1014.9 hPa 2.4 m/s 0.0 mm 17.1° 1014.5 hPa 1.5 m/s
 06:21     21:00    Daglengte: 14:39 Woensdag 18 Jul
01:00 16.7° 1015.1 hPa 1.3 m/s 0.0 mm 17.1° 1014.3 hPa 2.0 m/s 0.5 mm 17.6° 1015.2 hPa 1.6 m/s 0.0 mm 13.7° 1016.3 hPa 0.4 m/s 0.0 mm 16.4° 1015.0 hPa 1.4 m/s 0.0 mm 15.4° 1014.6 hPa 0.7 m/s
04:00 17.1° 1014.3 hPa 1.9 m/s 0.0 mm 17.7° 1013.5 hPa 3.0 m/s 0.6 mm 18.0° 1014.3 hPa 1.8 m/s 0.0 mm 14.8° 1015.4 hPa 0.4 m/s 0.0 mm 16.8° 1014.3 hPa 2.4 m/s 0.0 mm 14.9° 1014.1 hPa 0.9 m/s
07:00 17.3° 1015.0 hPa 1.8 m/s 0.0 mm 17.7° 1013.8 hPa 2.4 m/s 1.1 mm 17.8° 1014.6 hPa 1.9 m/s 0.0 mm 15.7° 1015.7 hPa 0.6 m/s 0.0 mm 17.2° 1015.0 hPa 2.1 m/s 0.0 mm 16.4° 1014.5 hPa 0.7 m/s
10:00 19.6° 1015.9 hPa 1.8 m/s 0.0 mm 19.2° 1014.9 hPa 2.4 m/s 1.7 mm 20.5° 1015.5 hPa 1.4 m/s 0.0 mm 18.0° 1016.0 hPa 0.5 m/s 0.0 mm 19.9° 1016.0 hPa 2.0 m/s 0.0 mm 19.3° 1015.3 hPa 1.7 m/s
13:00 23.6° 1015.9 hPa 2.9 m/s 0.0 mm 23.2° 1015.2 hPa 5.0 m/s 2.0 mm 23.2° 1016.0 hPa 2.9 m/s 0.0 mm 26.1° 1015.5 hPa 1.4 m/s 0.0 mm 23.3° 1016.2 hPa 3.3 m/s 0.0 mm 22.2° 1015.7 hPa 2.9 m/s
16:00 23.7° 1015.8 hPa 4.3 m/s 0.0 mm 23.3° 1015.1 hPa 6.7 m/s 2.0 mm 23.8° 1015.3 hPa 4.0 m/s 0.0 mm 23.6° 1016.0 hPa 4.1 m/s 0.0 mm 23.9° 1015.1 hPa 4.3 m/s
19:00 21.1° 1015.9 hPa 4.7 m/s 0.0 mm 20.1° 1015.5 hPa 6.3 m/s 2.0 mm 21.3° 1015.8 hPa 4.3 m/s 0.0 mm 21.1° 1016.4 hPa 4.7 m/s 0.0 mm 21.2° 1015.1 hPa 4.0 m/s
22:00 18.6° 1017.2 hPa 3.5 m/s 0.0 mm 18.5° 1016.8 hPa 4.3 m/s 2.5 mm 18.4° 1016.8 hPa 2.8 m/s 0.0 mm 18.7° 1017.5 hPa 3.7 m/s 0.0 mm 17.5° 1017.0 hPa 2.4 m/s
 06:21     20:59    Daglengte: 14:38 Donderdag 19 Jul
01:00 17.4° 1017.3 hPa 1.4 m/s 0.0 mm 18.0° 1016.5 hPa 3.8 m/s 3.6 mm 17.6° 1016.6 hPa 0.8 m/s 0.1 mm 16.6° 1017.7 hPa 1.2 m/s 0.0 mm 17.2° 1017.1 hPa 1.7 m/s
04:00 17.1° 1016.3 hPa 1.7 m/s 0.0 mm 17.8° 1015.8 hPa 3.7 m/s 4.8 mm 17.4° 1015.8 hPa 0.7 m/s 0.2 mm 16.8° 1016.7 hPa 1.7 m/s 0.0 mm 16.9° 1016.5 hPa 1.5 m/s
07:00 17.0° 1016.7 hPa 1.4 m/s 0.0 mm 18.1° 1015.7 hPa 3.6 m/s 7.4 mm 17.6° 1016.4 hPa 1.0 m/s 0.5 mm 16.7° 1016.9 hPa 1.3 m/s 0.0 mm 17.0° 1016.4 hPa 1.4 m/s
10:00 20.3° 1017.3 hPa 2.9 m/s 0.0 mm 19.6° 1016.6 hPa 4.1 m/s 10.1 mm 20.7° 1016.8 hPa 3.3 m/s 0.1 mm 20.4° 1017.5 hPa 3.0 m/s 0.4 mm 19.4° 1017.1 hPa 2.2 m/s
13:00 22.7° 1017.3 hPa 4.4 m/s 0.0 mm 22.5° 1017.2 hPa 6.2 m/s 11.5 mm 23.4° 1016.9 hPa 4.3 m/s 0.0 mm 22.1° 1017.8 hPa 4.4 m/s 0.4 mm 23.9° 1017.0 hPa 4.2 m/s
16:00 22.8° 1017.1 hPa 5.2 m/s 2.8 mm 23.2° 1017.2 hPa 7.9 m/s 11.7 mm 23.1° 1016.3 hPa 4.9 m/s 0.0 mm 22.5° 1017.3 hPa 4.9 m/s 0.4 mm 24.3° 1016.4 hPa 5.4 m/s
19:00 21.4° 1016.9 hPa 5.0 m/s 1.4 mm 21.2° 1017.0 hPa 7.1 m/s 11.7 mm 20.7° 1016.7 hPa 4.7 m/s 0.0 mm 21.7° 1017.0 hPa 4.7 m/s 0.0 mm 21.6° 1016.3 hPa 4.9 m/s
22:00 19.1° 1017.6 hPa 3.3 m/s 11.7 mm 18.1° 1018.1 hPa 4.5 m/s 11.7 mm 19.3° 1017.5 hPa 3.1 m/s 16.9° 1017.8 hPa 2.1 m/s
 06:22     20:58    Daglengte: 14:36 Vrijdag 20 Jul
01:00 16.9° 1018.1 hPa 1.5 m/s 11.7 mm 17.0° 1017.8 hPa 1.7 m/s 11.7 mm 16.9° 1018.1 hPa 1.5 m/s 15.9° 1017.8 hPa 1.1 m/s
04:00 16.5° 1017.6 hPa 1.2 m/s 0.0 mm 16.6° 1017.6 hPa 1.2 m/s 15.5° 1017.1 hPa 0.4 m/s 0.0 mm
07:00 16.3° 1017.4 hPa 1.1 m/s 0.0 mm 16.4° 1017.4 hPa 1.1 m/s 15.7° 1017.5 hPa 0.8 m/s 0.0 mm
10:00 20.7° 1017.6 hPa 1.8 m/s 0.0 mm 20.6° 1017.5 hPa 1.8 m/s 21.7° 1018.3 hPa 2.0 m/s 0.0 mm
13:00 25.0° 1017.7 hPa 2.6 m/s 0.0 mm 24.8° 1017.7 hPa 2.5 m/s 26.7° 1017.7 hPa 3.7 m/s 0.0 mm
16:00 24.1° 1017.0 hPa 3.8 m/s 0.0 mm 23.8° 1017.0 hPa 3.6 m/s 26.9° 1016.4 hPa 5.3 m/s 0.0 mm
19:00 22.9° 1016.4 hPa 4.8 m/s 0.0 mm 22.8° 1016.4 hPa 4.8 m/s 23.4° 1016.0 hPa 4.4 m/s 0.0 mm
22:00 19.2° 1016.9 hPa 2.6 m/s 0.0 mm 19.4° 1016.8 hPa 2.8 m/s 17.6° 1017.3 hPa 1.2 m/s 0.0 mm
 06:23     20:58    Daglengte: 14:35 Zaterdag 21 Jul
01:00 16.0° 1017.3 hPa 0.7 m/s 0.0 mm 16.0° 1017.3 hPa 0.7 m/s 16.4° 1017.2 hPa 0.7 m/s 0.0 mm
04:00 15.3° 1016.8 hPa 0.5 m/s 0.0 mm 15.2° 1016.9 hPa 0.4 m/s 16.4° 1016.3 hPa 1.2 m/s 0.0 mm
07:00 14.6° 1016.5 hPa 0.3 m/s 0.0 mm 14.4° 1016.5 hPa 0.2 m/s 16.5° 1016.6 hPa 1.5 m/s 0.0 mm
10:00 21.2° 1016.5 hPa 1.9 m/s 0.0 mm 20.8° 1016.5 hPa 1.8 m/s 26.0° 1016.7 hPa 1.9 m/s 0.0 mm
13:00 27.7° 1016.4 hPa 3.4 m/s 0.0 mm 27.2° 1016.4 hPa 3.5 m/s 33.2° 1016.2 hPa 1.7 m/s 0.0 mm
16:00 25.4° 1015.7 hPa 4.6 m/s 0.0 mm 24.8° 1015.8 hPa 4.6 m/s 32.8° 1014.6 hPa 4.3 m/s 0.0 mm
19:00 22.8° 1015.0 hPa 5.6 m/s 0.0 mm 22.3° 1015.1 hPa 5.7 m/s 28.7° 1013.8 hPa 4.3 m/s 0.0 mm
22:00 19.4° 1015.5 hPa 3.2 m/s 0.0 mm 19.1° 1015.6 hPa 3.4 m/s 21.6° 1014.7 hPa 0.9 m/s 0.0 mm
 06:24     20:57    Daglengte: 14:33 Zondag 22 Jul
01:00 16.4° 1016.0 hPa 1.1 m/s 0.0 mm 16.0° 1016.1 hPa 1.1 m/s 20.6° 1014.6 hPa 1.2 m/s 0.0 mm
04:00 16.2° 1015.4 hPa 0.7 m/s 0.0 mm 15.8° 1015.5 hPa 0.7 m/s 20.4° 1013.8 hPa 1.7 m/s 0.0 mm
07:00 16.1° 1014.8 hPa 0.3 m/s 0.0 mm 15.7° 1014.9 hPa 0.2 m/s 20.1° 1014.2 hPa 1.7 m/s 0.0 mm
10:00 21.7° 1014.5 hPa 1.2 m/s 0.0 mm 21.0° 1014.5 hPa 1.2 m/s 29.7° 1014.4 hPa 1.2 m/s 0.0 mm
13:00 27.2° 1014.2 hPa 2.0 m/s 0.0 mm 26.3° 1014.2 hPa 2.1 m/s 36.6° 1013.9 hPa 1.4 m/s 0.0 mm
16:00 26.4° 1013.4 hPa 3.3 m/s 0.0 mm 25.7° 1013.5 hPa 3.2 m/s 34.2° 1012.6 hPa 4.7 m/s 0.0 mm
19:00 25.4° 1012.8 hPa 4.2 m/s 0.0 mm 25.1° 1012.8 hPa 4.3 m/s 28.2° 1012.7 hPa 2.8 m/s 0.0 mm
22:00 20.9° 1013.7 hPa 2.8 m/s 0.0 mm 20.9° 1013.6 hPa 3.0 m/s 21.6° 1014.4 hPa 1.3 m/s 0.0 mm
 06:25     20:56    Daglengte: 14:31 Maandag 23 Jul
01:00 16.8° 1014.4 hPa 1.6 m/s 0.0 mm 16.6° 1014.4 hPa 1.6 m/s 19.3° 1014.7 hPa 1.2 m/s 0.0 mm
04:00 16.3° 1014.3 hPa 1.5 m/s 0.0 mm 16.2° 1014.3 hPa 1.6 m/s 17.7° 1014.3 hPa 1.3 m/s 0.0 mm
07:00 15.9° 1014.3 hPa 1.5 m/s 0.0 mm 15.8° 1014.2 hPa 1.5 m/s 17.4° 1015.1 hPa 1.4 m/s 0.0 mm
10:00 20.9° 1014.5 hPa 2.6 m/s 0.0 mm 20.9° 1014.4 hPa 2.6 m/s 21.4° 1016.0 hPa 2.3 m/s 0.0 mm
13:00 25.9° 1014.6 hPa 3.8 m/s 0.0 mm 26.0° 1014.5 hPa 3.8 m/s 24.8° 1015.8 hPa 3.4 m/s 0.1 mm
16:00 24.2° 1014.7 hPa 3.9 m/s 0.0 mm 24.1° 1014.6 hPa 3.9 m/s 24.7° 1015.2 hPa 3.8 m/s 0.0 mm
19:00 22.3° 1014.9 hPa 3.9 m/s 0.0 mm 22.3° 1014.8 hPa 4.0 m/s 22.1° 1015.6 hPa 3.3 m/s 0.0 mm
 06:26     20:55    Daglengte: 14:29 Dinsdag 24 Jul
01:00 18.5° 1015.9 hPa 2.0 m/s 0.0 mm 18.6° 1015.8 hPa 2.1 m/s 17.7° 1016.9 hPa 0.9 m/s 0.0 mm
07:00 16.9° 1015.1 hPa 0.2 m/s 0.1 mm 16.8° 1015.0 hPa 0.1 m/s 17.5° 1016.4 hPa 0.9 m/s 0.1 mm
13:00 22.9° 1016.1 hPa 2.6 m/s 0.0 mm 22.5° 1016.2 hPa 2.5 m/s 27.5° 1015.5 hPa 3.4 m/s 0.0 mm
19:00 22.0° 1015.0 hPa 4.0 m/s 0.0 mm 21.8° 1015.1 hPa 4.0 m/s 24.3° 1013.7 hPa 4.0 m/s 0.0 mm
 06:27     20:54    Daglengte: 14:27 Woensdag 25 Jul
01:00 17.0° 1016.0 hPa 1.8 m/s 0.0 mm 17.0° 1016.1 hPa 1.9 m/s 16.8° 1014.9 hPa 0.4 m/s 0.0 mm
07:00 17.0° 1015.6 hPa 0.5 m/s 0.0 mm 17.0° 1015.7 hPa 0.5 m/s 17.2° 1014.9 hPa 1.0 m/s 0.0 mm
13:00 25.0° 1016.4 hPa 3.2 m/s 0.0 mm 24.3° 1016.5 hPa 3.3 m/s 32.2° 1014.9 hPa 2.6 m/s 0.0 mm
19:00 22.7° 1016.1 hPa 4.8 m/s 0.0 mm 22.1° 1016.4 hPa 4.8 m/s 29.5° 1013.4 hPa 4.5 m/s 0.0 mm
 06:27     20:53    Daglengte: 14:26 Donderdag 26 Jul
01:00 15.8° 1017.7 hPa 1.7 m/s 0.0 mm 15.3° 1017.9 hPa 1.7 m/s 21.8° 1015.1 hPa 1.4 m/s 0.0 mm
07:00 15.2° 1018.0 hPa 1.4 m/s 0.0 mm 14.6° 1018.2 hPa 1.2 m/s 21.6° 1015.5 hPa 3.1 m/s 0.0 mm
13:00 25.0° 1017.6 hPa 3.8 m/s 0.1 mm 25.1° 1017.7 hPa 3.9 m/s
19:00 22.7° 1015.3 hPa 3.4 m/s 0.0 mm
 06:28     20:52    Daglengte: 14:24 Vrijdag 27 Jul
01:00 15.3° 1016.8 hPa 1.9 m/s 0.0 mm
07:00 14.7° 1015.7 hPa 1.6 m/s 0.1 mm
13:00 24.4° 1015.7 hPa 2.2 m/s 0.2 mm
19:00 23.0° 1014.7 hPa 3.2 m/s 0.0 mm
 06:29     20:52    Daglengte: 14:23 Zaterdag 28 Jul
01:00 15.5° 1016.3 hPa 1.8 m/s 0.0 mm
07:00 15.0° 1015.9 hPa 1.5 m/s 0.1 mm
13:00 24.4° 1016.6 hPa 2.1 m/s 0.0 mm
19:00 23.1° 1016.0 hPa 3.3 m/s 0.0 mm
 06:30     20:51    Daglengte: 14:21 Zondag 29 Jul
01:00 15.7° 1017.7 hPa 2.0 m/s 0.0 mm
07:00 15.2° 1017.4 hPa 1.8 m/s 0.0 mm
13:00 25.8° 1017.4 hPa 1.9 m/s 0.0 mm
19:00 24.5° 1016.1 hPa 3.2 m/s 0.0 mm
 06:31     20:50    Daglengte: 14:19 Maandag 30 Jul
01:00 16.5° 1017.3 hPa 1.9 m/s 0.0 mm
07:00 15.8° 1016.6 hPa 1.7 m/s 0.0 mm
13:00 26.9° 1016.5 hPa 2.1 m/s 0.0 mm
19:00 25.1° 1015.2 hPa 3.3 m/s 0.0 mm
 06:32     20:48    Daglengte: 14:16 Dinsdag 31 Jul
01:00 16.8° 1016.4 hPa 1.9 m/s 0.0 mm
07:00 16.2° 1015.8 hPa 1.7 m/s 0.0 mm
13:00 27.4° 1015.5 hPa 2.0 m/s 0.0 mm
19:00 25.4° 1014.0 hPa 3.3 m/s 0.0 mm
FMI Hirlam - 7.5 km EWN WRFDA - 12 km DWD ICON - 7 km GFS - 25 km Basiskaart






























































Updatetijd (Europe/Amsterdam) Resolutie Lengte Stap
FMI Hirlam 19:00, 01:00, 07:00, 13:00 7.5 km 49h 1h
EWN WRFDA 21:45, 03:45, 09:45, 15:45 12 km 73h 1h
DWD ICON 18:45, 00:45, 06:45, 12:45 7 km 75h 1h
GFS 21:15, 03:15, 09:15, 15:15 25 km 237h 3h
30+ mm
25-30 mm
20-25 mm
15-20 mm
10-15 mm
6-10 mm
4-6 mm
2-4 mm
1-2 mm
0.5-1 mm
0.2-0.5 mm
0.1-0.2 mm
30+ mm
25-30 mm
20-25 mm
15-20 mm
10-15 mm
6-10 mm
4-6 mm
2-4 mm
1-2 mm
0.5-1 mm
0.2-0.5 mm
0.1-0.2 mm
Sneeuwval
Natte sneeuw
Hagel
Vorst
30+ mm
25-30 mm
20-25 mm
15-20 mm
10-15 mm
6-10 mm
4-6 mm
2-4 mm
1-2 mm
0.5-1 mm
0.2-0.5 mm
0.1-0.2 mm
Sneeuwval
Natte sneeuw
Hagel
Vorst
Onweer
50 mm
40 mm
30 mm
26 mm
22 mm
18 mm
14 mm
10 mm
9 mm
8 mm
7 mm
6 mm
5 mm
4.5 mm
4 mm
3.5 mm
3 mm
2.5 mm
2 mm
1.5 mm
1 mm
0.8 mm
0.6 mm
0.4 mm
0.2 mm
0.05 mm
35°
30°
25°
20°
15°
10°
-5°
-10°
-15°
-20°
-25°
-30°
-35°
33> m/s
29 m/s
25 m/s
21 m/s
17 m/s
14 m/s
11 m/s
8 m/s
5 m/s
3 m/s
0 m/s
2600 J/kg
2400 J/kg
2200 J/kg
2000 J/kg
1800 J/kg
1600 J/kg
1400 J/kg
1200 J/kg
1000 J/kg
800 J/kg
600 J/kg
400 J/kg
200 J/kg
70 dBZ
65 dBZ
60 dBZ
55 dBZ
50 dBZ
45 dBZ
40 dBZ
35 dBZ
30 dBZ
25 dBZ
20 dBZ
15 dBZ
10 dBZ
5 dBZ
-1 K
-2 K
-3 K
-4 K
-5 K
-6 K
-7 K
-8 K
-9 K
950 m²/s²
900 m²/s²
850 m²/s²
800 m²/s²
750 m²/s²
700 m²/s²
650 m²/s²
600 m²/s²
550 m²/s²
500 m²/s²
450 m²/s²
400 m²/s²
350 m²/s²
300 m²/s²
250 m²/s²
200 m²/s²
150 m²/s²
100 m²/s²
46 m/s
44 m/s
42 m/s
40 m/s
38 m/s
36 m/s
34 m/s
32 m/s
30 m/s
28 m/s
26 m/s
24 m/s
22 m/s
20 m/s
16 m/s
12 m/s
8 m/s
4 m/s
30 m/s
28 m/s
26 m/s
24 m/s
22 m/s
20 m/s
18 m/s
16 m/s
14 m/s
12 m/s
10 m/s
8 m/s
6 m/s
4 m/s
2 m/s
3.0
2.8
2.6
2.4
2.2
2.0
1.8
1.6
1.4
1.2
1.0
0.8
0.6
0.4
0.2
15
14
13
12
11
10
9
8
7
6
5
4
3
2
1
90%
80%
70%
60%
50%
40%
30%
20%
10%
42
40
38
36
34
32
30
28
26
24
22
20
18
16
14
12
90+ cm
80-90 cm
70-80 cm
60-70 cm
50-60 cm
40-50 cm
30-40 cm
20-30 cm
10-20 cm
1-10 cm
Sneeuwval
Natte sneeuw
Regen
>120 mm
115 mm
110 mm
105 mm
100 mm
95 mm
90 mm
85 mm
80 mm
75 mm
70 mm
65 mm
60 mm
55 mm
50 mm
45 mm
45 mm
40 mm
35 mm
30 mm
25 mm
20 mm
15 mm
10 mm
5 mm
0.1 mm
960 hPa
880 hPa
800 hPa
720 hPa
640 hPa
560 hPa
584 gpdm
568 gpdm
552 gpdm
536 gpdm
520 gpdm
504 gpdm
488 gpdm
Extreem zwaar Noodweer Kans op onweer
15% 15% 5% 50% 15%

Dag




Kaart






35°
30°
25°
20°
15°
10°
-5°
-10°
-15°
-20°
-25°
-30°
-35°
33> m/s
29 m/s
25 m/s
21 m/s
17 m/s
14 m/s
11 m/s
8 m/s
5 m/s
3 m/s
0 m/s
Extreem zwaar Noodweer Kans op onweer
15% 15% 5% 50% 15%
>120 mm
115 mm
110 mm
105 mm
100 mm
95 mm
90 mm
85 mm
80 mm
75 mm
70 mm
65 mm
60 mm
55 mm
50 mm
45 mm
45 mm
40 mm
35 mm
30 mm
25 mm
20 mm
15 mm
10 mm
5 mm
0.1 mm
Onweer risico kaarten - De groene en gele kleur geeft de kans op onweer aan binnen 40 km van een punt. Oranje, rood en violet hebben hetzelfde niveau zoals je het ziet op estofex.org waaronder ook de kans op hagel en supercells.

dBZ - dBZ staat voor decibel ten opzichte van Z.

Cape - Convective available potential energy (CAPE), is de totale hoeveelheid energie die een luchtpakketje nodig heeft om zover mogelijk te stijgen in de atmosfeer.

K Index - K-Index wordt berekend door de Vertical Totals (VT) en het verschil tussen de 850 hPa temperatuur en de 700 hPa dauwpuntsdepressie (Tdd 700) bij elkaar op te tellen.

TT Index - Convectie index wordt gebruikt voor het voorspellen van zware buien of onweer.

WRF - The Weather Research and Forecasting (WRF) is een volgende generatie mesoscale numeriek weersvoorspelling systeem ontworpen om zowel de operationele planning als het atmosferisch onderzoek te dienen. WRF is a cooperatie tussen het National Center for Atmospheric Research (NCAR), National Centers for Environmental Prediction (NCEP), Forecast Systems Laboratory (FSL), Air Force Weather Agency (AFWA), Naval Research Laboratory, University of Oklahoma, en de Federal Aviation Administration (FAA). Deze software draait op onze server.

WRFDA - Een meer geavanceerde versie van WRF

Arome - Het 2.5 km Arome model. Verzorgd door het Noors Meteorologisch Instituut.

MET Norway - De proff-default 4km meteorological data is een beste keus selectie van meteorologische modellen gebruikt door met.no die zijn geïnterpoleerd tot een gemeenschappelijke dataset. Verzorgd door het Noorse Meteorologisch Instituut.

SMHI - Het Hirlam model verzorgd door het Zweeds meteorologisch instituut.

FMI - Het Hirlam model verzorgd door het Fins meteorologisch instituut. Dekking alleen Finland.

GFS - Het Global Forecast Systeem (GFS) is een wereldwijd numerieke weersvoorspelling computermodel, gerund door NOAA.

GEM-GDPS - Het GEM-GDPS is a wereldwijd numeriek weersvoorspelling computermodel verzorgd door het Canadees Meteorologisch Centrum.

Credits/Info: Dank aan Stefan Gofferje van sääkeskus.fi voor enkele formules van GrADS. Info: Wikipedia.

Betrouwbaarheid van de verwachting

NB! 2015-03-29: Rebuilding the accuracy-test!

EWNACC
Day 1 Good forecasts

Dag 1 Tmax

Dag 2 Tmax

Geladen verwachtingen TOP 50

Totaal geladen verwachtingen:
Plaats Latitude Longitude Verwachtingen Plaats Latitude Longitude Verwachtingen